Location: B�rgermoos
(47.6500°N, 9.0667°E)
Time: 16:42:47
(UTC+00:00)

A-11 Canister half - Pass Details

Date: 04 August 2021
Orbit: 1526 x 1683 km, 47.3° (Epoch: 20 September)

Event Time Altitude Azimuth Distance (km) Brightness Sun altitude
Rises 13:11:30 0° 273° (W) 4,933 12.0 53.0°
Reaches altitude 10° 13:14:41 10° 274° (W) 3,937 11.6 52.6°
Maximum altitude 13:24:51 87° 186° (S) 1,655 10.3 51.4°
Drops below altitude 10° 13:34:42 10° 99° (E) 3,830 10.9 50.2°
Sets 13:37:45 0° 100° (E) 4,794 11.3 49.8°
